Weather History for Minden, LA

Change the Weather History Date:

Wednesday, February 20, 2013

  Actual Average (KBAD) Record (KBAD)
Temperature  
Mean Temperature 46 °F -  
Max Temperature 51 °F 59 °F 78 °F (2011)
Min Temperature 42 °F 41 °F 29 °F (2009)
Degree Days  
Heating Degree Days 18    
Moisture  
Dew Point 31 °F    
Average Humidity 56    
Maximum Humidity 75    
Minimum Humidity 41    
Precipitation  
Precipitation 0.00 in - - ()
Sea Level Pressure  
Sea Level Pressure 30.15 in    
Wind  
Wind Speed 7 mph (East)    
Max Wind Speed 16 mph    
Max Gust Speed 22 mph    
Visibility 10 miles    
Events Rain    
Averages and records for this station are not official NWS values.
T = Trace of Precipitation, MM = Missing Value Source: NWS Daily Summary

Daily Weather History Graph

Daily Weather History Graph

Search for Another Location

Airport:

Trip Planner

Search our weather history database for the weather conditions in past years. The results will help you decide how hot, cold, wet, or windy it might be!

Date:

Astronomy

Feb. 20, 2013 Rise Set
Actual Time 6:50 AM CST 6:03 PM CST
Civil Twilight 6:25 AM CST 6:28 PM CST
Nautical Twilight 5:57 AM CST 6:57 PM CST
Astronomical Twilight 5:28 AM CST 7:25 PM CST
Moon 1:34 PM CST (2/20) 3:01 AM CST (2/20)
Length of Visible Light 12h 02m
Length of Day
11h 12m
Waxing Gibbous, 76% of the Moon is Illuminated
Feb 20
Waxing Gibbous
Feb 25
Full
Mar 4
Last Quarter
Mar 11
New
Mar 19
First Quarter

Hourly Weather History & Observations

Time (CST) Temp. Windchill Dew Point Humidity Pressure Visibility Wind Dir Wind Speed Gust Speed Precip Events Conditions
12:15 AM 47.3 °F - 30.2 °F 52% 30.27 in 10.0 mi East 3.5 mph - N/A   Scattered Clouds
12:35 AM 47.3 °F - 31.5 °F 54% 30.24 in 10.0 mi East 8.1 mph - N/A   Mostly Cloudy
12:55 AM 47.3 °F - 31.8 °F 55% 30.24 in 10.0 mi East 8.1 mph - N/A   Overcast
1:15 AM 47.3 °F - 32.0 °F 55% 30.23 in 10.0 mi East 8.1 mph - N/A   Overcast
1:35 AM 46.9 °F - 32.0 °F 56% 30.23 in 10.0 mi ESE 4.6 mph - N/A   Overcast
1:55 AM 46.8 °F - 32.0 °F 57% 30.22 in 10.0 mi East 5.8 mph - N/A   Overcast
2:15 AM 46.8 °F - 32.0 °F 57% 30.21 in 10.0 mi East 5.8 mph - N/A   Overcast
2:35 AM 46.8 °F - 32.4 °F 57% 30.20 in 10.0 mi East 5.8 mph - N/A   Overcast
2:55 AM 46.8 °F - 31.8 °F 56% 30.20 in 10.0 mi East 8.1 mph - N/A   Overcast
3:15 AM 46.6 °F - 31.6 °F 56% 30.24 in 10.0 mi Calm Calm - N/A   Overcast
3:35 AM 46.4 °F 45.2 °F 31.6 °F 56% 30.23 in 10.0 mi East 3.5 mph - N/A   Overcast
3:55 AM 46.0 °F 44.8 °F 31.6 °F 57% 30.22 in 10.0 mi ENE 3.5 mph - N/A   Mostly Cloudy
4:15 AM 45.9 °F 43.6 °F 31.8 °F 58% 30.23 in 10.0 mi East 4.6 mph - N/A   Mostly Cloudy
4:35 AM 45.0 °F 43.5 °F 31.5 °F 59% 30.22 in 10.0 mi East 3.5 mph - N/A   Scattered Clouds
4:55 AM 44.6 °F 43.1 °F 31.8 °F 61% 30.23 in 10.0 mi East 3.5 mph - N/A   Clear
5:15 AM 44.8 °F 41.6 °F 32.0 °F 61% 30.22 in 10.0 mi ENE 5.8 mph - N/A   Clear
5:55 AM 45.1 °F 42.8 °F 30.7 °F 57% 30.20 in 10.0 mi East 4.6 mph - N/A   Scattered Clouds
6:15 AM 45.1 °F 42.8 °F 29.7 °F 55% 30.21 in 10.0 mi ENE 4.6 mph - N/A   Scattered Clouds
6:55 AM 44.6 °F 43.1 °F 29.7 °F 56% 30.23 in 10.0 mi ENE 3.5 mph - N/A   Clear
7:15 AM 43.9 °F 42.3 °F 30.0 °F 58% 30.24 in 10.0 mi East 3.5 mph - N/A   Clear
7:35 AM 43.5 °F - 30.7 °F 61% 30.25 in 10.0 mi Calm Calm - N/A   Clear
7:55 AM 43.7 °F 40.3 °F 31.8 °F 63% 30.25 in 10.0 mi East 5.8 mph - N/A   Clear
8:15 AM 44.2 °F 40.3 °F 31.8 °F 62% 30.24 in 10.0 mi East 6.9 mph - N/A   Scattered Clouds
8:35 AM 44.6 °F 39.7 °F 31.8 °F 61% 30.23 in 10.0 mi East 9.2 mph - N/A   Scattered Clouds
8:55 AM 45.5 °F 40.3 °F 30.9 °F 57% 30.24 in 10.0 mi ESE 10.4 mph 19.6 mph N/A   Mostly Cloudy
9:15 AM 45.5 °F 40.3 °F 30.4 °F 56% 30.25 in 10.0 mi ESE 10.4 mph 17.3 mph N/A   Mostly Cloudy
9:55 AM 44.2 °F 40.3 °F 32.0 °F 62% 30.18 in 10.0 mi ENE 6.9 mph 17.3 mph N/A Rain Light Rain
10:15 AM 44.8 °F 41.6 °F 31.8 °F 60% 30.20 in 10.0 mi NE 5.8 mph 17.3 mph N/A   Overcast
10:35 AM 45.1 °F 39.9 °F 31.5 °F 59% 30.21 in 10.0 mi East 10.4 mph - N/A   Overcast
10:55 AM 47.1 °F - 30.6 °F 53% 30.19 in 10.0 mi East 16.1 mph 20.7 mph N/A   Mostly Cloudy
11:15 AM 47.8 °F - 29.7 °F 49% 30.22 in 10.0 mi East 11.5 mph 18.4 mph N/A   Scattered Clouds
11:35 AM 51.3 °F - 30.0 °F 44% 30.20 in 10.0 mi East 10.4 mph 19.6 mph N/A   Clear
11:55 AM 49.5 °F - 28.6 °F 45% 30.19 in 10.0 mi East 12.7 mph 17.3 mph N/A   Mostly Cloudy
12:15 PM 50.2 °F - 28.2 °F 43% 30.19 in 10.0 mi East 9.2 mph 17.3 mph N/A   Overcast
12:35 PM 50.2 °F - 27.0 °F 41% 30.19 in 10.0 mi ESE 8.1 mph - N/A   Overcast
12:55 PM 49.3 °F - 27.3 °F 43% 30.21 in 10.0 mi NE 3.5 mph - N/A   Overcast
1:15 PM 48.7 °F - 27.5 °F 44% 30.19 in 10.0 mi ENE 6.9 mph - N/A   Overcast
1:35 PM 49.3 °F - 27.5 °F 43% 30.17 in 10.0 mi ENE 6.9 mph - N/A   Overcast
1:55 PM 48.4 °F - 26.8 °F 43% 30.14 in 10.0 mi ENE 11.5 mph 16.1 mph N/A   Overcast
2:15 PM 48.4 °F - 25.7 °F 41% 30.10 in 10.0 mi East 15.0 mph 21.9 mph N/A   Overcast
2:35 PM 48.2 °F - 25.9 °F 42% 30.10 in 10.0 mi East 11.5 mph 17.3 mph N/A   Overcast
2:55 PM 47.7 °F - 26.2 °F 43% 30.09 in 10.0 mi East 9.2 mph - N/A   Overcast
3:15 PM 46.9 °F - 29.7 °F 51% 30.09 in 10.0 mi ENE 6.9 mph - N/A Rain Rain
3:35 PM 45.7 °F 41.5 °F 32.4 °F 60% 30.07 in 10.0 mi ENE 8.1 mph - N/A Rain Light Rain
3:55 PM 46.2 °F 44.1 °F 32.2 °F 58% 30.08 in 10.0 mi NE 4.6 mph - N/A   Overcast
4:15 PM 46.2 °F 44.1 °F 32.7 °F 59% 30.08 in 10.0 mi North 4.6 mph - N/A   Light Drizzle
4:35 PM 44.2 °F 42.7 °F 36.7 °F 75% 30.08 in 10.0 mi NE 3.5 mph - N/A Rain Light Rain
4:55 PM 44.2 °F 42.7 °F 36.7 °F 75% 30.09 in 10.0 mi North 3.5 mph - N/A   Light Drizzle
5:15 PM 43.7 °F 40.3 °F 35.8 °F 74% 30.08 in 10.0 mi ENE 5.8 mph - N/A Rain Light Rain
5:35 PM 44.4 °F 42.0 °F 33.8 °F 66% 30.07 in 10.0 mi NE 4.6 mph - N/A Rain Light Rain
5:55 PM 44.6 °F 40.7 °F 33.1 °F 64% 30.07 in 10.0 mi East 6.9 mph - N/A   Overcast
6:15 PM 44.4 °F 41.2 °F 32.7 °F 64% 30.07 in 10.0 mi ENE 5.8 mph - N/A   Overcast
6:55 PM 44.4 °F 40.0 °F 32.0 °F 62% 30.08 in 10.0 mi ENE 8.1 mph - N/A   Overcast
7:15 PM 44.2 °F 39.2 °F 30.4 °F 58% 30.06 in 10.0 mi East 9.2 mph 16.1 mph N/A   Overcast
7:35 PM 44.1 °F 37.7 °F 28.8 °F 55% 30.05 in 10.0 mi East 12.7 mph 17.3 mph N/A   Overcast
7:55 PM 43.9 °F 39.3 °F 28.4 °F 55% 30.04 in 10.0 mi East 8.1 mph 19.6 mph N/A   Overcast
8:15 PM 43.9 °F 38.3 °F 29.3 °F 57% 30.04 in 10.0 mi ENE 10.4 mph 16.1 mph N/A   Overcast
8:35 PM 43.0 °F 36.8 °F 29.3 °F 59% 30.04 in 10.0 mi East 11.5 mph 17.3 mph N/A Rain Light Rain
8:55 PM 42.8 °F 37.0 °F 29.3 °F 59% 30.04 in 10.0 mi East 10.4 mph - N/A Rain Light Rain
9:35 PM 42.3 °F 36.8 °F 29.3 °F 60% 30.04 in 10.0 mi East 9.2 mph - N/A   Overcast
9:55 PM 42.8 °F 37.5 °F 29.1 °F 58% 30.03 in 10.0 mi East 9.2 mph - N/A   Overcast
10:35 PM 42.8 °F 37.5 °F 29.7 °F 60% 30.02 in 10.0 mi East 9.2 mph - N/A   Overcast
11:15 PM 43.0 °F 38.2 °F 29.7 °F 59% 30.02 in 10.0 mi East 8.1 mph - N/A   Overcast
11:35 PM 43.2 °F 37.9 °F 30.2 °F 60% 30.02 in 10.0 mi East 9.2 mph - N/A   Overcast
11:55 PM 43.3 °F 37.7 °F 29.8 °F 59% 30.01 in 10.0 mi East 10.4 mph 16.1 mph N/A   Overcast